Home > Weather > Cleveland > Past weeks

Flag for USA Past Weather in Cleveland, Ohio, USA — Yesterday and Last 2 Weeks

Now
66 °F

Clear.


Feels Like: 66 °F
Forecast: 66 / 84 °F
Wind: No wind

Location: Cleveland-Hopkins International Airport

Current Time: Jun 24, 2016 at 11:29:35 PM

Latest Report: Jun 24, 2016 at 10:51 PM


Visibility: 10 mi

Pressure: 30.11 "Hg

Humidity: 63%

Dew Point: 53 °F

Location of ClevelandLocation

Past Weather in Cleveland — Graph

°F

Cleveland Temperature Yesterday

Maximum temperature yesterday: 74 °F (at 6:51 PM)
Minimum temperature yesterday: 68 °F (at 11:51 PM)
Average temperature yesterday: 71 °F

High & Low Weather Summary for the Past Weeks

 TemperatureHumidityPressure
High93 °F (Jun 11, 4:51 PM)87% (Jun 16, 7:51 AM)30.33 "Hg (Jun 16, 7:51 AM)
Low53 °F (Jun 13, 6:51 AM)27% (Jun 12, 5:51 PM)29.66 "Hg (Jun 16, 1:51 PM)
Average74 °F53%29.99 "Hg
* Reported Jun 9 9:51 PM — Jun 24 9:51 PM, Cleveland, Weather by CustomWeather, © 2016

Note: Actual official high and low records may vary slightly from our data, if they occured in-between our weather recording intervals... More about our weather records

Advertising

Cleveland Weather History for the Previous 24 Hours

Scroll right to see more
 ConditionsComfort  
Time TempWeatherWind HumidityBarometerVisibility
9:51 PM
Fri, Jun 24
68 °FSunny.5 mph53%30.10 "Hg10 mi
8:51 PM71 °FSunny.7 mph45%30.09 "Hg10 mi
7:51 PM75 °FSunny.8 mph33%30.09 "Hg10 mi
6:51 PM76 °FSunny.10 mph30%30.09 "Hg10 mi
5:51 PM77 °FSunny.10 mph32%30.09 "Hg10 mi
4:51 PM77 °FSunny.13 mph37%30.09 "Hg10 mi
3:51 PM78 °FSunny.12 mph39%30.10 "Hg10 mi
2:51 PM77 °FSunny.17 mph42%30.09 "Hg10 mi
1:51 PM77 °FSunny.15 mph42%30.08 "Hg10 mi
12:51 PM76 °FSunny.12 mph50%30.08 "Hg10 mi
11:51 AM75 °FPassing clouds.8 mph52%30.08 "Hg10 mi
10:51 AM75 °FPassing clouds.9 mph50%30.07 "Hg10 mi
9:51 AM73 °FPassing clouds.7 mph53%30.06 "Hg10 mi
8:51 AM71 °FPassing clouds.13 mph53%30.06 "Hg10 mi
7:51 AM69 °FPassing clouds.9 mph61%30.05 "Hg10 mi
6:51 AM64 °FPassing clouds.7 mph58%30.02 "Hg10 mi
5:51 AM64 °FPassing clouds.7 mph52%30.00 "Hg10 mi
4:51 AM61 °FPassing clouds.5 mph75%30.00 "Hg10 mi
3:51 AM60 °FPassing clouds.No wind78%30.00 "Hg10 mi
2:51 AM65 °FPassing clouds.No wind59%29.98 "Hg10 mi
1:51 AM63 °FPassing clouds.5 mph73%29.98 "Hg10 mi
12:51 AM66 °FPassing clouds.No wind63%29.96 "Hg10 mi
11:51 PM
Thu, Jun 23
68 °FPassing clouds.6 mph55%29.96 "Hg10 mi
Weather by CustomWeather, © 2016

See weather overviewHow to use our weather pages